[[{"header":{"parameterUnit":"m.s-1","parameterCategory":1,"la1":30.2991,"la2":30.254,"lo1":-89.0895,"lo2":-89.0444,"dy":0.0017,"dx":0.0017,"nx":28,"ny":28,"refTime":"2023-10-21T21:00:00:Z","depth":0,"parameterNumber":2,"parameterNumberName":"U-component_of_WINDS"},"data":[0,0,0,0,0,0,0,0,0,0,0,0,0,0,0,0,0,0,0,0,0,0,0,0,0,0,0,0,0,0,0,0,0,0,0,0,0,0,0,0,0,0,0,0,0,0,0,0,0,0,0,0,0,0,0,0,0,0,-0.7583,-0.7583,0,-0.7577,-0.7577,-0.7577,-0.756,-0.7559,-0.7559,-0.7558,-0.7553,-0.7553,-0.7554,0,0,0,0,0,0,0,0,0,0,0,0,0,-0.758,-0.758,-0.7583,-0.7583,-0.7583,-0.7577,-0.7577,-0.7577,-0.756,-0.7559,-0.7559,-0.7558,-0.7553,-0.7553,-0.7554,0,0,0,0,0,0,0,0,0,0,0,0,0,-0.7579,-0.758,-0.7583,-0.7574,-0.7573,-0.7577,-0.7577,-0.7577,-0.756,-0.7559,-0.7559,-0.7558,-0.7553,-0.7553,-0.7554,-0.7568,0,0,-0.7555,-0.7555,0,0,0,0,0,0,0,0,-0.7579,-0.7579,-0.7575,-0.7574,-0.7573,-0.7569,-0.7574,-0.7574,-0.756,-0.7565,-0.7558,-0.7558,-0.7559,-0.7559,-0.7559,-0.7567,-0.7567,-0.7555,-0.7555,-0.7555,-0.7555,0,0,0,0,0,0,0,-0.7579,-0.7579,-0.7581,-0.7575,-0.7574,-0.757,-0.7569,-0.7574,-0.7565,-0.7564,-0.7563,-0.7562,-0.7558,-0.7559,-0.7559,-0.7567,-0.7555,-0.7555,-0.7555,-0.7555,-0.7587,-0.7587,0,0,0,0,0,0,-0.758,-0.7579,-0.7581,-0.7581,-0.7575,-0.757,-0.7569,-0.7571,-0.7565,-0.7564,-0.7563,-0.7562,-0.7558,-0.7558,-0.7558,-0.7574,-0.7555,-0.7555,-0.7556,-0.7586,-0.7587,-0.7587,0,0,0,0,0,0,-0.758,-0.758,-0.7581,-0.758,-0.7579,-0.7571,-0.7573,-0.7571,-0.7571,-0.7564,-0.7562,-0.7565,-0.7558,-0.7558,-0.7565,-0.7574,-0.7556,-0.7556,-0.7585,-0.7586,-0.7587,-0.7606,0,0,0,0,0,0,-0.758,-0.7581,-0.7586,-0.758,-0.758,-0.7588,-0.7573,-0.7571,-0.7572,-0.757,-0.7566,-0.7564,-0.7557,-0.7565,-0.7566,-0.7574,-0.7556,-0.7585,-0.7586,-0.7587,-0.7605,-0.7608,-0.761,0,0,0,0,0,-0.758,-0.7591,-0.7586,-0.7586,-0.7586,-0.7589,-0.7589,-0.758,-0.7573,-0.7578,-0.7573,-0.7564,-0.7573,-0.7566,-0.7567,-0.7575,-0.7584,-0.7585,-0.7587,-0.7604,-0.7607,-0.761,0,0,0,0,0,0,-0.7598,-0.759,-0.7584,-0.7594,-0.7592,-0.7586,-0.7592,-0.7584,-0.7585,-0.7583,-0.7573,-0.7573,-0.7581,-0.7579,-0.7571,-0.7588,-0.7577,-0.7579,-0.7589,-0.7593,-0.7595,-0.7596,-0.7556,0,0,0,0,0,-0.7604,-0.7607,-0.76,-0.7609,-0.7608,-0.76,-0.7601,-0.7595,-0.7593,-0.7592,-0.7588,-0.7587,-0.7589,-0.7591,-0.7593,-0.7604,-0.7603,-0.7611,-0.7613,-0.7616,-0.7617,-0.7623,-0.7626,-0.7592,-0.7592,-0.7592,0,0,-0.7614,-0.761,-0.7613,-0.7612,-0.761,-0.7614,-0.76,-0.7604,-0.7607,-0.7593,-0.76,-0.7597,-0.7595,-0.7604,-0.7608,-0.7603,-0.7626,-0.7617,-0.7619,-0.7619,-0.7625,-0.7628,-0.7631,-0.7593,-0.7593,-0.7593,0,0,-0.7636,-0.7633,-0.764,-0.7638,-0.7635,-0.763,-0.7632,-0.7627,-0.7624,-0.7631,-0.7621,-0.7624,-0.7628,-0.7627,-0.7627,-0.7648,-0.764,-0.7649,-0.7663,-0.7669,-0.7672,-0.7674,-0.7682,-0.7685,-0.765,-0.765,-0.765,0,-0.7649,-0.7654,-0.7645,-0.765,-0.765,-0.7638,-0.7645,-0.7644,-0.7642,-0.7643,-0.7636,-0.7641,-0.7639,-0.7648,-0.7653,-0.7654,-0.7656,-0.7649,-0.7672,-0.7674,-0.7676,-0.7684,-0.7686,-0.7652,-0.7651,-0.7651,-0.7651,0,-0.7671,-0.7675,-0.7681,-0.7679,-0.768,-0.7686,-0.7679,-0.7681,-0.7675,-0.767,-0.7677,-0.7674,-0.7675,-0.7677,-0.7671,-0.7685,-0.7682,-0.7674,-0.7662,-0.7681,-0.7687,-0.769,-0.7653,-0.7653,-0.7652,-0.7652,0,0,-0.7703,-0.7697,-0.7699,-0.7698,-0.7694,-0.7697,-0.7703,-0.7703,-0.7705,-0.7705,-0.7709,-0.7713,-0.7706,-0.7706,-0.77,-0.7706,-0.7723,-0.7697,-0.7697,-0.7702,-0.7739,-0.7744,-0.7748,-0.7717,-0.7718,-0.7718,-0.7739,0,-0.7724,-0.7733,-0.7725,-0.7736,-0.7739,-0.7728,-0.7733,-0.7731,-0.7728,-0.773,-0.7726,-0.7729,-0.7719,-0.7719,-0.7724,-0.772,-0.773,-0.7718,-0.7722,-0.7722,-0.7723,-0.7751,-0.7757,-0.7777,-0.7741,-0.7742,-0.7742,0,-0.7748,-0.7748,-0.7759,-0.7755,-0.7756,-0.7761,-0.7761,-0.7763,-0.7761,-0.7758,-0.7758,-0.7751,-0.7757,-0.7745,-0.7753,-0.7746,-0.7747,-0.7745,-0.7746,-0.7746,-0.7733,-0.7752,-0.7782,-0.7785,-0.7746,-0.7746,-0.7745,0,-0.777,-0.7773,-0.7781,-0.778,-0.7775,-0.7779,-0.7777,-0.7774,-0.7775,-0.7775,-0.7776,-0.7777,-0.7778,-0.7779,-0.7772,-0.7764,-0.7781,-0.7769,-0.7778,-0.7779,-0.7782,-0.7782,-0.7814,-0.7783,-0.7783,-0.7783,-0.7783,0,-0.7793,-0.7801,-0.779,-0.7795,-0.7803,-0.7794,-0.7802,-0.7799,-0.7797,-0.7801,-0.7791,-0.7795,-0.7786,-0.7789,-0.7784,-0.7791,-0.7791,-0.7789,-0.7788,-0.779,-0.779,-0.779,-0.7789,-0.7784,-0.7784,-0.7784,-0.7784,0,-0.782,-0.7813,-0.782,-0.7815,-0.7813,-0.782,-0.7815,-0.7819,-0.7815,-0.782,-0.782,-0.7814,-0.7817,-0.781,-0.7812,-0.7809,-0.7819,-0.7816,-0.782,-0.7819,-0.7828,-0.7827,-0.7861,-0.7865,-0.7833,-0.7833,-0.7833,0,-0.7835,-0.784,-0.7835,-0.7837,-0.7835,-0.7838,-0.7839,-0.7831,-0.7833,-0.7831,-0.7835,-0.7837,-0.7839,-0.7844,-0.784,-0.7841,-0.7838,-0.7849,-0.7838,-0.784,-0.7838,-0.7837,-0.7838,-0.7852,-0.7852,-0.7852,-0.7853,0,-0.7862,-0.7858,-0.786,-0.7861,-0.7862,-0.7862,-0.7862,-0.7864,-0.7855,-0.7857,-0.786,-0.7861,-0.7864,-0.7866,-0.7867,-0.7865,-0.7857,-0.7856,-0.7858,-0.7861,-0.7863,-0.7862,-0.7826,-0.7855,-0.7855,-0.7855,-0.7855,-0.7855,-0.7883,-0.7887,-0.7884,-0.7887,-0.7885,-0.7885,-0.7889,-0.7885,-0.7887,-0.7888,-0.7883,-0.7887,-0.7885,-0.7886,-0.7885,-0.7888,-0.7883,-0.7886,-0.7887,-0.7888,-0.7889,-0.7863,-0.7888,-0.7888,-0.7888,-0.7888,-0.7888,0,-0.7909,-0.7907,-0.7909,-0.7909,-0.7911,-0.7904,-0.7903,-0.7905,-0.7908,-0.7907,-0.7909,-0.7912,-0.7915,-0.7911,-0.7912,-0.7916,-0.7912,-0.7916,-0.7916,-0.7916,-0.7894,-0.7892,-0.7919,-0.7919,-0.7919,-0.7919,-0.7919,-0.7919,-0.7923,-0.793,-0.7927,-0.7933,-0.7931,-0.7934,-0.7935,-0.7935,-0.7934,-0.7938,-0.794,-0.7937,-0.7935,-0.7936,-0.7938,-0.7937,-0.7938,-0.7943,-0.7941,-0.792,-0.7917,-0.7914,-0.7912,-0.7944,-0.7944,-0.7962,-0.7962,-0.7963]},{"header":{"parameterUnit":"m.s-1","parameterCategory":1,"la1":30.2991,"la2":30.254,"lo1":-89.0895,"lo2":-89.0444,"dy":0.0017,"dx":0.0017,"nx":28,"ny":28,"refTime":"2023-10-21T21:00:00:Z","depth":0,"parameterNumber":3,"parameterNumberName":"V-component_of_WINDS"},"data":[0,0,0,0,0,0,0,0,0,0,0,0,0,0,0,0,0,0,0,0,0,0,0,0,0,0,0,0,0,0,0,0,0,0,0,0,0,0,0,0,0,0,0,0,0,0,0,0,0,0,0,0,0,0,0,0,0,0,-0.4146,-0.4147,0,-0.4225,-0.4226,-0.4227,-0.4286,-0.4286,-0.4287,-0.4287,-0.4368,-0.437,-0.4372,0,0,0,0,0,0,0,0,0,0,0,0,0,-0.4047,-0.4049,-0.4146,-0.4147,-0.4148,-0.4225,-0.4226,-0.4227,-0.4286,-0.4286,-0.4287,-0.4288,-0.4368,-0.437,-0.4372,0,0,0,0,0,0,0,0,0,0,0,0,0,-0.4104,-0.4049,-0.4146,-0.4186,-0.4191,-0.4225,-0.4226,-0.4227,-0.4286,-0.4286,-0.4287,-0.4288,-0.4367,-0.437,-0.4372,-0.4372,0,0,-0.438,-0.4381,0,0,0,0,0,0,0,0,-0.4101,-0.4108,-0.4179,-0.4184,-0.4189,-0.4246,-0.4221,-0.4276,-0.4285,-0.425,-0.4287,-0.4288,-0.4327,-0.4333,-0.4346,-0.4375,-0.4379,-0.438,-0.4381,-0.4382,-0.4383,0,0,0,0,0,0,0,-0.4097,-0.4105,-0.4177,-0.418,-0.4186,-0.4201,-0.421,-0.4232,-0.4283,-0.4253,-0.4257,-0.4266,-0.433,-0.4343,-0.4348,-0.438,-0.438,-0.4382,-0.4384,-0.4385,-0.4415,-0.4414,0,0,0,0,0,0,-0.4087,-0.4101,-0.4175,-0.418,-0.4146,-0.4202,-0.4212,-0.4227,-0.4283,-0.4292,-0.4265,-0.4268,-0.4339,-0.4345,-0.4351,-0.4355,-0.4382,-0.4385,-0.4386,-0.4415,-0.4415,-0.4414,0,0,0,0,0,0,-0.4084,-0.4093,-0.4171,-0.4142,-0.4153,-0.4203,-0.4219,-0.4228,-0.4242,-0.4292,-0.4302,-0.4269,-0.434,-0.4348,-0.4367,-0.4359,-0.4386,-0.4388,-0.4416,-0.4415,-0.4414,-0.4362,0,0,0,0,0,0,-0.4081,-0.4091,-0.4091,-0.4141,-0.4154,-0.4184,-0.4219,-0.4229,-0.4246,-0.4251,-0.4299,-0.4308,-0.4341,-0.4362,-0.4369,-0.4363,-0.439,-0.4417,-0.4416,-0.4414,-0.4365,-0.436,-0.4355,0,0,0,0,0,-0.4077,-0.4073,-0.4091,-0.4099,-0.4155,-0.4184,-0.4191,-0.423,-0.4245,-0.4246,-0.4278,-0.4306,-0.4359,-0.4364,-0.4372,-0.4366,-0.4418,-0.4416,-0.4415,-0.4367,-0.4361,-0.4355,0,0,0,0,0,0,-0.4021,-0.408,-0.4101,-0.4112,-0.4143,-0.4194,-0.4196,-0.4222,-0.4248,-0.4252,-0.4299,-0.4309,-0.4323,-0.4347,-0.4351,-0.437,-0.4392,-0.4392,-0.4353,-0.4348,-0.4343,-0.4336,-0.4392,0,0,0,0,0,-0.401,-0.4028,-0.4079,-0.4085,-0.4099,-0.4144,-0.4159,-0.4186,-0.4219,-0.4232,-0.4266,-0.4297,-0.4321,-0.4336,-0.4361,-0.4369,-0.4381,-0.437,-0.4365,-0.436,-0.4359,-0.4367,-0.4363,-0.4409,-0.4409,-0.4409,0,0,-0.3987,-0.4022,-0.403,-0.4074,-0.4101,-0.4119,-0.4155,-0.4172,-0.4187,-0.4235,-0.4254,-0.4281,-0.4319,-0.4333,-0.434,-0.4353,-0.435,-0.4358,-0.4355,-0.4356,-0.4365,-0.436,-0.4357,-0.4408,-0.4408,-0.4408,0,0,-0.3954,-0.3982,-0.399,-0.4017,-0.4057,-0.4088,-0.4089,-0.4137,-0.4156,-0.4177,-0.4214,-0.4232,-0.4272,-0.4298,-0.4316,-0.4296,-0.4322,-0.4303,-0.4277,-0.4283,-0.428,-0.4277,-0.427,-0.4267,-0.4302,-0.4302,-0.4302,0,-0.3921,-0.3949,-0.3991,-0.4007,-0.4026,-0.4071,-0.408,-0.4103,-0.4149,-0.4161,-0.4175,-0.4227,-0.4256,-0.4277,-0.4272,-0.4285,-0.429,-0.4297,-0.4277,-0.4274,-0.4272,-0.4266,-0.4263,-0.4299,-0.4299,-0.4299,-0.43,0,-0.3906,-0.3926,-0.3928,-0.3971,-0.399,-0.4002,-0.4047,-0.4061,-0.4088,-0.4117,-0.4138,-0.4175,-0.4208,-0.4215,-0.4241,-0.424,-0.4247,-0.4268,-0.4291,-0.4264,-0.4259,-0.4257,-0.4295,-0.4296,-0.4297,-0.4298,0,0,-0.3839,-0.3907,-0.3907,-0.3928,-0.3976,-0.3992,-0.4007,-0.404,-0.4052,-0.4083,-0.4096,-0.413,-0.415,-0.4171,-0.42,-0.4206,-0.4188,-0.4227,-0.4229,-0.4219,-0.4191,-0.4175,-0.4171,-0.4207,-0.4207,-0.4206,-0.4188,0,-0.3814,-0.3842,-0.3881,-0.3897,-0.3916,-0.3961,-0.3974,-0.4005,-0.4034,-0.4055,-0.4086,-0.4109,-0.4134,-0.4147,-0.4155,-0.4189,-0.4183,-0.4191,-0.422,-0.4221,-0.4209,-0.4169,-0.4151,-0.4132,-0.4186,-0.4186,-0.4186,0,-0.3788,-0.3817,-0.3834,-0.3883,-0.3892,-0.3903,-0.3937,-0.3957,-0.3994,-0.4014,-0.4038,-0.407,-0.4089,-0.411,-0.4137,-0.4141,-0.4156,-0.4175,-0.4175,-0.4179,-0.4201,-0.4171,-0.4126,-0.4123,-0.4183,-0.4183,-0.4183,0,-0.3737,-0.378,-0.3797,-0.3814,-0.387,-0.3877,-0.3901,-0.3939,-0.3957,-0.3987,-0.3999,-0.4031,-0.4048,-0.4072,-0.4112,-0.4124,-0.4135,-0.4159,-0.4153,-0.4151,-0.4152,-0.4151,-0.4109,-0.4162,-0.4162,-0.4162,-0.4162,0,-0.3705,-0.3714,-0.3775,-0.3785,-0.3797,-0.3843,-0.3853,-0.3882,-0.3915,-0.3932,-0.3973,-0.3988,-0.404,-0.4061,-0.4092,-0.411,-0.4118,-0.4135,-0.4143,-0.4131,-0.4129,-0.4141,-0.4143,-0.4161,-0.4162,-0.4162,-0.4162,0,-0.3649,-0.3691,-0.3712,-0.3764,-0.3777,-0.3784,-0.3829,-0.3841,-0.3873,-0.3894,-0.3901,-0.395,-0.3978,-0.402,-0.406,-0.4082,-0.4094,-0.4108,-0.4081,-0.4086,-0.4077,-0.4077,-0.404,-0.4038,-0.4092,-0.4092,-0.4091,0,-0.3626,-0.3634,-0.3687,-0.3702,-0.3724,-0.3747,-0.3765,-0.3811,-0.3829,-0.3873,-0.388,-0.391,-0.3937,-0.3979,-0.4019,-0.405,-0.4065,-0.405,-0.4069,-0.4057,-0.4064,-0.4063,-0.4065,-0.4045,-0.4044,-0.4043,-0.4043,0,-0.3579,-0.36,-0.3625,-0.3658,-0.3679,-0.3707,-0.3737,-0.3746,-0.3799,-0.3817,-0.3846,-0.3867,-0.3908,-0.3938,-0.3975,-0.4001,-0.403,-0.4036,-0.4036,-0.4024,-0.4008,-0.4017,-0.4068,-0.4037,-0.4037,-0.4038,-0.4038,-0.4038,-0.3539,-0.3549,-0.3588,-0.3616,-0.3643,-0.3671,-0.3685,-0.3718,-0.3743,-0.378,-0.3806,-0.3834,-0.3872,-0.3925,-0.3949,-0.3972,-0.3984,-0.3984,-0.3984,-0.3984,-0.3979,-0.4005,-0.3979,-0.3979,-0.3979,-0.3979,-0.3979,0,-0.3495,-0.3523,-0.3548,-0.3589,-0.361,-0.3637,-0.3672,-0.3688,-0.3712,-0.3746,-0.3772,-0.3805,-0.3835,-0.3878,-0.3911,-0.3921,-0.3936,-0.3928,-0.3928,-0.3933,-0.3966,-0.3962,-0.3916,-0.3916,-0.3916,-0.3916,-0.3916,-0.3916,-0.3475,-0.3493,-0.3518,-0.3551,-0.3579,-0.3606,-0.3624,-0.365,-0.3677,-0.3713,-0.3738,-0.3766,-0.3804,-0.384,-0.3869,-0.3881,-0.3891,-0.388,-0.3896,-0.3925,-0.3931,-0.3936,-0.3933,-0.3882,-0.3882,-0.3861,-0.3861,-0.3861]}]]